Year,All taxa,Accepted taxa,Vernaculars,Notes,Distributions,Specimens,Sources,Images,Attributes
"2000-01-28 11:07:32",1,0,0,0,0,0,0,0,0
"2000-04-04 12:37:39",11,11,0,0,0,0,0,0,0
"2000-04-12 02:22:14",4,4,0,0,0,0,0,0,0
"2000-04-19 02:42:52",5,5,0,5,0,0,0,0,0
"2000-05-01 22:24:50",1,1,0,1,0,0,0,0,0
"2000-05-02 22:41:25",5,5,0,5,0,0,0,0,0
"2003-09-12 00:00:00",0,0,0,0,0,0,0,4,0
"2003-10-06 00:00:00",0,0,0,0,0,0,0,3,0
"2003-10-12 00:00:00",0,0,0,0,0,0,0,6,0
"2003-11-12 00:00:00",0,0,0,0,0,0,0,8,0
"2003-11-20 00:00:00",0,0,0,0,0,0,0,40,0
"2003-12-15 00:00:00",0,0,0,0,0,0,0,1,0
"2003-12-16 00:00:00",0,0,0,0,0,0,0,8,0
"2003-12-17 00:00:00",0,0,0,0,0,0,0,5,0
"2004-10-18 11:25:58",0,0,0,0,0,0,0,2,0
"2004-10-18 11:25:59",0,0,0,0,0,0,0,18,0
"2004-10-18 11:26:00",0,0,0,0,0,0,0,21,0
"2004-10-18 11:26:01",0,0,0,0,0,0,0,19,0
"2004-10-18 11:26:02",0,0,0,0,0,0,0,15,0
"2004-10-18 11:26:03",0,0,0,0,0,0,0,16,0
"2004-10-18 11:26:04",0,0,0,0,0,0,0,19,0
"2004-10-18 11:26:05",0,0,0,0,0,0,0,19,0
"2004-10-18 11:26:06",0,0,0,0,0,0,0,20,0
"2004-10-18 11:26:07",0,0,0,0,0,0,0,12,0
"2004-10-18 11:26:08",0,0,0,0,0,0,0,15,0
"2004-10-18 11:26:09",0,0,0,0,0,0,0,19,0
"2004-10-18 11:26:10",0,0,0,0,0,0,0,11,0
"2004-10-18 11:26:11",0,0,0,0,0,0,0,16,0
"2004-10-18 11:26:12",0,0,0,0,0,0,0,17,0
"2004-10-18 11:26:13",0,0,0,0,0,0,0,14,0
"2004-10-18 11:26:14",0,0,0,0,0,0,0,16,0
"2004-10-18 11:26:15",0,0,0,0,0,0,0,18,0
"2004-10-18 11:26:16",0,0,0,0,0,0,0,18,0
"2004-10-18 11:26:17",0,0,0,0,0,0,0,16,0
"2004-10-18 11:26:18",0,0,0,0,0,0,0,16,0
"2004-10-18 11:26:19",0,0,0,0,0,0,0,14,0
"2004-10-18 11:26:20",0,0,0,0,0,0,0,21,0
"2004-10-18 11:26:21",0,0,0,0,0,0,0,13,0
"2004-10-18 11:26:22",0,0,0,0,0,0,0,21,0
"2004-10-18 11:26:23",0,0,0,0,0,0,0,17,0
"2004-10-18 11:26:24",0,0,0,0,0,0,0,18,0
"2004-10-18 11:26:25",0,0,0,0,0,0,0,14,0
"2004-10-18 11:26:26",0,0,0,0,0,0,0,14,0
"2004-10-18 11:26:27",0,0,0,0,0,0,0,18,0
"2004-10-18 11:26:28",0,0,0,0,0,0,0,17,0
"2004-10-18 11:26:29",0,0,0,0,0,0,0,16,0
"2004-10-18 11:26:30",0,0,0,0,0,0,0,18,0
"2004-10-18 11:26:31",0,0,0,0,0,0,0,13,0
"2004-10-18 11:26:32",0,0,0,0,0,0,0,17,0
"2004-10-18 11:26:33",0,0,0,0,0,0,0,11,0
"2004-10-18 11:26:34",0,0,0,0,0,0,0,13,0
"2004-10-18 11:26:35",0,0,0,0,0,0,0,17,0
"2004-10-18 11:26:36",0,0,0,0,0,0,0,15,0
"2004-10-18 11:26:37",0,0,0,0,0,0,0,17,0
"2004-10-18 11:26:38",0,0,0,0,0,0,0,19,0
"2004-10-18 11:26:39",0,0,0,0,0,0,0,16,0
"2004-10-18 11:26:40",0,0,0,0,0,0,0,12,0
"2004-10-18 11:26:41",0,0,0,0,0,0,0,7,0
"2004-10-18 11:26:42",0,0,0,0,0,0,0,7,0
"2004-10-18 11:26:43",0,0,0,0,0,0,0,13,0
"2004-10-18 11:26:44",0,0,0,0,0,0,0,16,0
"2004-10-18 11:26:45",0,0,0,0,0,0,0,13,0
"2004-10-18 11:26:46",0,0,0,0,0,0,0,15,0
"2004-10-18 11:26:47",0,0,0,0,0,0,0,13,0
"2004-10-18 11:26:48",0,0,0,0,0,0,0,15,0
"2004-10-18 11:26:49",0,0,0,0,0,0,0,18,0
"2004-10-18 11:26:50",0,0,0,0,0,0,0,17,0
"2004-10-18 11:26:51",0,0,0,0,0,0,0,16,0
"2004-10-18 11:26:52",0,0,0,0,0,0,0,18,0
"2004-10-18 11:26:53",0,0,0,0,0,0,0,14,0
"2004-10-18 11:26:54",0,0,0,0,0,0,0,5,0
"2004-10-18 11:26:55",0,0,0,0,0,0,0,12,0
"2004-10-18 11:32:09",0,0,0,0,0,0,0,3,0
"2004-10-18 11:32:13",0,0,0,0,0,0,0,1,0
"2004-10-18 11:32:14",0,0,0,0,0,0,0,17,0
"2004-10-18 11:32:15",0,0,0,0,0,0,0,15,0
"2004-10-18 11:32:16",0,0,0,0,0,0,0,16,0
"2004-10-18 11:32:17",0,0,0,0,0,0,0,18,0
"2004-10-18 11:32:18",0,0,0,0,0,0,0,7,0
"2004-10-18 11:32:19",0,0,0,0,0,0,0,8,0
"2004-10-18 11:32:20",0,0,0,0,0,0,0,12,0
"2004-10-18 11:32:21",0,0,0,0,0,0,0,18,0
"2004-10-18 11:32:22",0,0,0,0,0,0,0,16,0
"2004-10-18 11:32:23",0,0,0,0,0,0,0,16,0
"2004-10-18 11:32:24",0,0,0,0,0,0,0,17,0
"2004-10-18 11:32:25",0,0,0,0,0,0,0,5,0
"2004-10-18 11:32:26",0,0,0,0,0,0,0,10,0
"2004-10-18 11:32:27",0,0,0,0,0,0,0,11,0
"2004-10-18 11:32:28",0,0,0,0,0,0,0,17,0
"2004-10-18 11:32:29",0,0,0,0,0,0,0,18,0
"2004-10-18 11:32:30",0,0,0,0,0,0,0,16,0
"2004-10-18 11:32:31",0,0,0,0,0,0,0,13,0
"2004-10-18 11:32:32",0,0,0,0,0,0,0,19,0
"2004-10-18 11:32:33",0,0,0,0,0,0,0,13,0
"2004-10-18 11:32:34",0,0,0,0,0,0,0,15,0
"2004-10-18 11:32:35",0,0,0,0,0,0,0,15,0
"2004-10-18 11:32:36",0,0,0,0,0,0,0,17,0
"2004-10-18 11:32:37",0,0,0,0,0,0,0,15,0
"2004-10-18 11:32:38",0,0,0,0,0,0,0,10,0
"2004-10-18 11:32:39",0,0,0,0,0,0,0,15,0
"2004-10-18 11:32:40",0,0,0,0,0,0,0,14,0
"2004-10-18 11:32:41",0,0,0,0,0,0,0,12,0
"2004-10-18 11:32:42",0,0,0,0,0,0,0,19,0
"2004-10-18 11:32:43",0,0,0,0,0,0,0,18,0
"2004-10-18 11:32:44",0,0,0,0,0,0,0,12,0
"2004-10-18 11:32:45",0,0,0,0,0,0,0,9,0
"2004-10-18 11:32:46",0,0,0,0,0,0,0,13,0
"2004-10-18 11:32:47",0,0,0,0,0,0,0,8,0
"2004-10-18 11:32:48",0,0,0,0,0,0,0,14,0
"2004-10-18 11:32:49",0,0,0,0,0,0,0,19,0
"2004-10-18 11:32:50",0,0,0,0,0,0,0,15,0
"2004-10-18 11:32:51",0,0,0,0,0,0,0,16,0
"2004-10-18 11:32:52",0,0,0,0,0,0,0,15,0
"2004-10-18 11:32:53",0,0,0,0,0,0,0,19,0
"2004-10-18 11:32:54",0,0,0,0,0,0,0,18,0
"2004-10-18 11:32:55",0,0,0,0,0,0,0,15,0
"2004-10-18 11:32:56",0,0,0,0,0,0,0,9,0
"2004-10-18 11:32:57",0,0,0,0,0,0,0,17,0
"2004-10-18 11:32:58",0,0,0,0,0,0,0,17,0
"2004-10-18 11:32:59",0,0,0,0,0,0,0,7,0
"2004-10-18 11:33:00",0,0,0,0,0,0,0,18,0
"2004-10-18 11:33:01",0,0,0,0,0,0,0,17,0
"2004-10-18 11:33:02",0,0,0,0,0,0,0,17,0
"2004-10-18 11:33:03",0,0,0,0,0,0,0,19,0
"2004-10-18 11:33:04",0,0,0,0,0,0,0,16,0
"2004-10-18 11:33:05",0,0,0,0,0,0,0,13,0
"2004-10-18 11:33:06",0,0,0,0,0,0,0,13,0
"2004-10-18 11:33:07",0,0,0,0,0,0,0,12,0
"2004-10-18 11:43:45",0,0,0,0,0,0,0,1,0
"2004-10-18 11:43:46",0,0,0,0,0,0,0,10,0
"2004-10-18 11:43:47",0,0,0,0,0,0,0,6,0
"2004-10-18 11:43:48",0,0,0,0,0,0,0,9,0
"2004-10-18 11:43:49",0,0,0,0,0,0,0,7,0
"2004-10-18 11:43:50",0,0,0,0,0,0,0,4,0
"2004-10-18 11:43:51",0,0,0,0,0,0,0,3,0
"2004-10-18 11:43:52",0,0,0,0,0,0,0,9,0
"2004-10-18 11:43:53",0,0,0,0,0,0,0,6,0
"2004-10-18 11:43:54",0,0,0,0,0,0,0,5,0
"2004-10-18 11:43:55",0,0,0,0,0,0,0,5,0
"2004-10-18 11:43:56",0,0,0,0,0,0,0,6,0
"2004-10-18 11:43:57",0,0,0,0,0,0,0,5,0
"2004-10-18 11:43:58",0,0,0,0,0,0,0,7,0
"2004-10-18 11:43:59",0,0,0,0,0,0,0,8,0
"2004-10-18 11:44:00",0,0,0,0,0,0,0,6,0
"2004-10-18 11:44:01",0,0,0,0,0,0,0,5,0
"2004-10-18 11:44:02",0,0,0,0,0,0,0,5,0
"2004-10-18 11:44:03",0,0,0,0,0,0,0,3,0
"2004-10-18 11:44:04",0,0,0,0,0,0,0,7,0
"2004-10-18 11:44:05",0,0,0,0,0,0,0,5,0
"2004-10-18 11:44:06",0,0,0,0,0,0,0,4,0
"2004-10-18 11:44:07",0,0,0,0,0,0,0,9,0
"2004-10-18 11:44:08",0,0,0,0,0,0,0,6,0
"2004-10-18 11:44:09",0,0,0,0,0,0,0,12,0
"2004-10-18 11:44:10",0,0,0,0,0,0,0,3,0
"2004-10-18 11:44:11",0,0,0,0,0,0,0,5,0
"2004-10-18 11:44:12",0,0,0,0,0,0,0,9,0
"2004-10-18 11:44:13",0,0,0,0,0,0,0,5,0
"2004-10-18 11:44:14",0,0,0,0,0,0,0,5,0
"2004-10-18 11:44:15",0,0,0,0,0,0,0,6,0
"2004-10-18 11:44:16",0,0,0,0,0,0,0,3,0
"2004-10-18 11:44:17",0,0,0,0,0,0,0,7,0
"2004-10-18 11:44:18",0,0,0,0,0,0,0,5,0
"2004-10-18 11:44:19",0,0,0,0,0,0,0,6,0
"2004-10-18 11:44:20",0,0,0,0,0,0,0,5,0
"2004-10-18 11:44:21",0,0,0,0,0,0,0,4,0
"2004-10-18 11:44:22",0,0,0,0,0,0,0,8,0
"2004-10-18 11:44:23",0,0,0,0,0,0,0,5,0
"2004-10-18 11:44:24",0,0,0,0,0,0,0,2,0
"2004-10-18 11:44:25",0,0,0,0,0,0,0,4,0
"2004-10-18 11:44:26",0,0,0,0,0,0,0,9,0
"2004-10-18 11:44:27",0,0,0,0,0,0,0,10,0
"2004-10-18 11:44:28",0,0,0,0,0,0,0,3,0
"2004-10-18 11:44:29",0,0,0,0,0,0,0,4,0
"2004-10-18 11:44:30",0,0,0,0,0,0,0,8,0
"2004-10-18 11:44:31",0,0,0,0,0,0,0,5,0
"2004-10-18 11:44:32",0,0,0,0,0,0,0,3,0
"2004-10-18 11:44:33",0,0,0,0,0,0,0,4,0
"2004-10-18 11:44:34",0,0,0,0,0,0,0,8,0
"2004-10-18 11:44:35",0,0,0,0,0,0,0,5,0
"2004-10-18 11:44:36",0,0,0,0,0,0,0,5,0
"2004-10-18 11:44:37",0,0,0,0,0,0,0,7,0
"2004-10-18 11:44:38",0,0,0,0,0,0,0,4,0
"2004-10-18 11:44:39",0,0,0,0,0,0,0,7,0
"2004-10-18 11:44:40",0,0,0,0,0,0,0,4,0
"2004-10-18 11:44:41",0,0,0,0,0,0,0,6,0
"2004-10-18 11:44:42",0,0,0,0,0,0,0,6,0
"2004-10-18 11:44:43",0,0,0,0,0,0,0,6,0
"2004-10-18 11:44:44",0,0,0,0,0,0,0,5,0
"2004-10-18 11:44:45",0,0,0,0,0,0,0,7,0
"2004-10-18 11:44:46",0,0,0,0,0,0,0,6,0
"2004-10-18 11:44:47",0,0,0,0,0,0,0,2,0
"2004-10-18 11:44:50",0,0,0,0,0,0,0,1,0
"2004-10-18 11:44:51",0,0,0,0,0,0,0,11,0
"2004-10-18 11:44:52",0,0,0,0,0,0,0,8,0
"2004-10-18 11:44:53",0,0,0,0,0,0,0,9,0
"2004-10-18 11:44:54",0,0,0,0,0,0,0,9,0
"2004-10-18 11:44:55",0,0,0,0,0,0,0,9,0
"2004-10-18 11:44:56",0,0,0,0,0,0,0,9,0
"2004-10-18 11:44:57",0,0,0,0,0,0,0,6,0
"2004-10-18 11:44:58",0,0,0,0,0,0,0,6,0
"2004-10-18 11:44:59",0,0,0,0,0,0,0,5,0
"2004-10-18 11:45:00",0,0,0,0,0,0,0,6,0
"2004-10-18 11:45:01",0,0,0,0,0,0,0,10,0
"2004-10-18 11:45:02",0,0,0,0,0,0,0,6,0
"2004-10-18 11:45:03",0,0,0,0,0,0,0,5,0
"2004-10-18 11:45:04",0,0,0,0,0,0,0,5,0
"2004-10-18 11:45:05",0,0,0,0,0,0,0,6,0
"2004-10-18 11:45:06",0,0,0,0,0,0,0,8,0
"2004-10-18 11:45:07",0,0,0,0,0,0,0,5,0
"2004-10-18 11:45:08",0,0,0,0,0,0,0,5,0
"2004-10-18 11:45:09",0,0,0,0,0,0,0,7,0
"2004-10-18 11:45:10",0,0,0,0,0,0,0,4,0
"2004-10-18 11:45:11",0,0,0,0,0,0,0,3,0
"2004-10-18 11:45:15",0,0,0,0,0,0,0,5,0
"2004-10-18 11:45:16",0,0,0,0,0,0,0,3,0
"2004-10-18 11:45:17",0,0,0,0,0,0,0,6,0
"2004-10-18 11:45:18",0,0,0,0,0,0,0,7,0
"2004-10-18 11:45:19",0,0,0,0,0,0,0,2,0
"2004-10-18 11:45:20",0,0,0,0,0,0,0,5,0
"2004-10-18 11:45:21",0,0,0,0,0,0,0,6,0
"2004-10-18 11:45:23",0,0,0,0,0,0,0,5,0
"2004-10-18 11:45:24",0,0,0,0,0,0,0,4,0
"2004-10-18 11:45:25",0,0,0,0,0,0,0,4,0
"2004-10-18 11:45:26",0,0,0,0,0,0,0,13,0
"2004-10-18 11:45:27",0,0,0,0,0,0,0,5,0
"2004-10-18 11:45:28",0,0,0,0,0,0,0,2,0
"2004-10-18 11:45:29",0,0,0,0,0,0,0,7,0
"2004-10-18 11:45:30",0,0,0,0,0,0,0,4,0
"2004-10-18 11:45:31",0,0,0,0,0,0,0,7,0
"2004-10-18 11:45:32",0,0,0,0,0,0,0,5,0
"2004-10-18 11:45:33",0,0,0,0,0,0,0,4,0
"2004-10-18 11:45:34",0,0,0,0,0,0,0,3,0
"2004-10-18 11:45:35",0,0,0,0,0,0,0,3,0
"2004-10-18 11:45:36",0,0,0,0,0,0,0,3,0
"2004-10-18 11:45:37",0,0,0,0,0,0,0,3,0
"2004-10-18 11:45:38",0,0,0,0,0,0,0,4,0
"2004-10-18 11:45:39",0,0,0,0,0,0,0,4,0
"2004-10-18 11:45:40",0,0,0,0,0,0,0,7,0
"2004-10-18 11:45:41",0,0,0,0,0,0,0,2,0
"2004-10-18 11:45:42",0,0,0,0,0,0,0,6,0
"2004-10-18 11:45:43",0,0,0,0,0,0,0,10,0
"2004-10-18 11:45:44",0,0,0,0,0,0,0,8,0
"2004-10-18 11:45:45",0,0,0,0,0,0,0,6,0
"2004-10-18 11:45:46",0,0,0,0,0,0,0,6,0
"2004-10-18 11:45:47",0,0,0,0,0,0,0,6,0
"2004-10-18 11:45:48",0,0,0,0,0,0,0,4,0
"2004-10-18 11:45:49",0,0,0,0,0,0,0,7,0
"2004-10-18 11:45:50",0,0,0,0,0,0,0,8,0
"2004-10-18 11:45:51",0,0,0,0,0,0,0,11,0
"2004-10-18 11:45:52",0,0,0,0,0,0,0,9,0
"2004-10-18 11:45:53",0,0,0,0,0,0,0,6,0
"2004-10-18 11:45:54",0,0,0,0,0,0,0,5,0
"2004-10-18 11:45:55",0,0,0,0,0,0,0,5,0
"2004-10-18 11:45:56",0,0,0,0,0,0,0,5,0
"2004-10-18 11:45:57",0,0,0,0,0,0,0,4,0
"2004-10-18 11:45:58",0,0,0,0,0,0,0,6,0
"2004-10-18 11:45:59",0,0,0,0,0,0,0,6,0
"2004-10-18 11:46:00",0,0,0,0,0,0,0,8,0
"2004-10-18 11:46:01",0,0,0,0,0,0,0,7,0
"2004-10-18 11:46:02",0,0,0,0,0,0,0,8,0
"2004-10-18 11:46:03",0,0,0,0,0,0,0,3,0
"2004-10-18 11:46:04",0,0,0,0,0,0,0,6,0
"2004-10-18 11:46:05",0,0,0,0,0,0,0,1,0
"2004-10-18 11:46:06",0,0,0,0,0,0,0,4,0
"2004-10-18 11:46:07",0,0,0,0,0,0,0,7,0
"2004-10-18 11:46:08",0,0,0,0,0,0,0,7,0
"2004-10-18 11:46:09",0,0,0,0,0,0,0,6,0
"2004-10-18 11:46:10",0,0,0,0,0,0,0,5,0
"2004-10-18 11:46:11",0,0,0,0,0,0,0,2,0
"2004-10-18 11:46:12",0,0,0,0,0,0,0,6,0
"2004-10-18 11:46:13",0,0,0,0,0,0,0,4,0
"2004-10-18 11:46:14",0,0,0,0,0,0,0,6,0
"2004-10-18 11:46:15",0,0,0,0,0,0,0,7,0
"2004-10-18 11:46:16",0,0,0,0,0,0,0,4,0
"2004-10-18 11:46:17",0,0,0,0,0,0,0,6,0
"2004-10-18 11:46:18",0,0,0,0,0,0,0,4,0
"2004-10-18 11:46:19",0,0,0,0,0,0,0,4,0
"2004-10-18 11:46:20",0,0,0,0,0,0,0,5,0
"2004-10-18 11:46:21",0,0,0,0,0,0,0,5,0
"2004-10-18 11:46:22",0,0,0,0,0,0,0,4,0
"2004-10-18 11:46:23",0,0,0,0,0,0,0,8,0
"2004-10-18 11:46:24",0,0,0,0,0,0,0,6,0
"2004-10-18 11:46:25",0,0,0,0,0,0,0,1,0
"2004-10-18 11:46:26",0,0,0,0,0,0,0,3,0
"2004-10-18 11:46:27",0,0,0,0,0,0,0,3,0
"2004-10-18 11:46:28",0,0,0,0,0,0,0,5,0
"2004-10-18 11:46:29",0,0,0,0,0,0,0,5,0
"2004-10-18 11:46:30",0,0,0,0,0,0,0,7,0
"2004-10-18 11:46:31",0,0,0,0,0,0,0,8,0
"2004-10-18 11:46:32",0,0,0,0,0,0,0,3,0
"2004-10-18 11:46:33",0,0,0,0,0,0,0,1,0
"2004-10-18 11:46:34",0,0,0,0,0,0,0,8,0
"2004-10-18 11:46:35",0,0,0,0,0,0,0,2,0
"2004-10-18 11:46:36",0,0,0,0,0,0,0,7,0
"2004-10-18 11:46:37",0,0,0,0,0,0,0,2,0
"2004-10-18 11:46:38",0,0,0,0,0,0,0,4,0
"2004-10-18 11:46:39",0,0,0,0,0,0,0,1,0
"2004-10-18 11:46:40",0,0,0,0,0,0,0,3,0
"2004-10-18 11:46:41",0,0,0,0,0,0,0,1,0
"2004-10-18 11:46:42",0,0,0,0,0,0,0,1,0
"2004-10-18 11:46:43",0,0,0,0,0,0,0,1,0
"2004-10-18 11:46:44",0,0,0,0,0,0,0,1,0
"2004-10-18 11:46:45",0,0,0,0,0,0,0,8,0
"2004-10-18 11:46:46",0,0,0,0,0,0,0,7,0
"2004-10-18 11:46:51",0,0,0,0,0,0,0,3,0
"2004-10-18 11:46:52",0,0,0,0,0,0,0,6,0
"2004-10-18 11:46:53",0,0,0,0,0,0,0,8,0
"2004-10-18 11:46:54",0,0,0,0,0,0,0,7,0
"2004-10-18 11:46:55",0,0,0,0,0,0,0,7,0
"2004-10-18 11:46:56",0,0,0,0,0,0,0,4,0
"2004-10-18 11:46:57",0,0,0,0,0,0,0,4,0
"2004-10-18 11:46:58",0,0,0,0,0,0,0,2,0
"2004-10-18 11:46:59",0,0,0,0,0,0,0,6,0
"2004-10-18 11:47:00",0,0,0,0,0,0,0,6,0
"2004-10-18 11:47:01",0,0,0,0,0,0,0,7,0
"2004-10-18 11:47:02",0,0,0,0,0,0,0,4,0
"2004-10-18 11:47:03",0,0,0,0,0,0,0,4,0
"2004-10-18 11:47:04",0,0,0,0,0,0,0,3,0
"2004-10-18 11:47:05",0,0,0,0,0,0,0,7,0
"2004-10-18 11:47:07",0,0,0,0,0,0,0,7,0
"2004-10-18 11:47:08",0,0,0,0,0,0,0,6,0
"2004-10-18 11:47:09",0,0,0,0,0,0,0,6,0
"2004-10-18 11:47:10",0,0,0,0,0,0,0,5,0
"2004-10-18 11:47:11",0,0,0,0,0,0,0,3,0
"2004-10-18 11:47:12",0,0,0,0,0,0,0,4,0
"2004-10-18 11:47:14",0,0,0,0,0,0,0,3,0
"2004-10-18 11:47:18",0,0,0,0,0,0,0,5,0
"2004-10-18 11:47:19",0,0,0,0,0,0,0,2,0
"2004-10-18 11:47:20",0,0,0,0,0,0,0,7,0
"2004-10-18 11:47:21",0,0,0,0,0,0,0,3,0
"2004-10-18 11:47:22",0,0,0,0,0,0,0,4,0
"2004-10-18 11:47:23",0,0,0,0,0,0,0,7,0
"2004-10-18 11:47:24",0,0,0,0,0,0,0,1,0
"2004-10-18 11:59:12",0,0,0,0,0,0,0,7,0
"2004-10-18 11:59:13",0,0,0,0,0,0,0,5,0
"2004-10-18 11:59:14",0,0,0,0,0,0,0,19,0
"2004-10-18 11:59:15",0,0,0,0,0,0,0,13,0
"2004-10-18 11:59:16",0,0,0,0,0,0,0,15,0
"2004-10-18 11:59:17",0,0,0,0,0,0,0,19,0
"2004-10-18 11:59:18",0,0,0,0,0,0,0,16,0
"2004-10-18 11:59:19",0,0,0,0,0,0,0,12,0
"2004-10-18 11:59:20",0,0,0,0,0,0,0,14,0
"2004-10-18 11:59:21",0,0,0,0,0,0,0,15,0
"2004-10-18 11:59:22",0,0,0,0,0,0,0,10,0
"2004-10-18 11:59:23",0,0,0,0,0,0,0,12,0
"2004-10-18 11:59:24",0,0,0,0,0,0,0,19,0
"2004-10-18 11:59:25",0,0,0,0,0,0,0,13,0
"2004-10-18 11:59:26",0,0,0,0,0,0,0,13,0
"2004-10-18 11:59:27",0,0,0,0,0,0,0,9,0
"2004-10-18 11:59:28",0,0,0,0,0,0,0,13,0
"2004-10-18 11:59:29",0,0,0,0,0,0,0,15,0
"2004-10-18 11:59:30",0,0,0,0,0,0,0,20,0
"2004-10-18 11:59:31",0,0,0,0,0,0,0,15,0
"2004-10-18 11:59:32",0,0,0,0,0,0,0,17,0
"2004-10-18 11:59:33",0,0,0,0,0,0,0,14,0
"2004-10-18 11:59:34",0,0,0,0,0,0,0,6,0
"2004-10-18 11:59:35",0,0,0,0,0,0,0,2,0
"2004-10-18 11:59:36",0,0,0,0,0,0,0,8,0
"2004-10-18 11:59:37",0,0,0,0,0,0,0,8,0
"2004-10-18 11:59:38",0,0,0,0,0,0,0,5,0
"2004-10-18 11:59:39",0,0,0,0,0,0,0,8,0
"2004-10-18 11:59:40",0,0,0,0,0,0,0,10,0
"2004-10-18 11:59:41",0,0,0,0,0,0,0,7,0
"2004-10-18 11:59:42",0,0,0,0,0,0,0,16,0
"2004-10-18 11:59:43",0,0,0,0,0,0,0,5,0
"2004-10-18 11:59:44",0,0,0,0,0,0,0,13,0
"2004-10-18 11:59:45",0,0,0,0,0,0,0,11,0
"2004-10-18 11:59:46",0,0,0,0,0,0,0,13,0
"2004-10-18 11:59:47",0,0,0,0,0,0,0,11,0
"2004-10-18 11:59:48",0,0,0,0,0,0,0,18,0
"2004-10-18 11:59:49",0,0,0,0,0,0,0,13,0
"2004-10-18 11:59:50",0,0,0,0,0,0,0,18,0
"2004-10-18 11:59:51",0,0,0,0,0,0,0,10,0
"2004-10-18 11:59:52",0,0,0,0,0,0,0,19,0
"2004-10-18 11:59:53",0,0,0,0,0,0,0,20,0
"2004-10-18 11:59:54",0,0,0,0,0,0,0,10,0
"2004-10-18 11:59:55",0,0,0,0,0,0,0,17,0
"2004-10-18 11:59:56",0,0,0,0,0,0,0,19,0
"2004-10-18 11:59:57",0,0,0,0,0,0,0,19,0
"2004-10-18 11:59:58",0,0,0,0,0,0,0,12,0
"2004-10-18 11:59:59",0,0,0,0,0,0,0,13,0
"2004-10-18 12:00:00",0,0,0,0,0,0,0,12,0
"2004-10-18 12:00:01",0,0,0,0,0,0,0,18,0
"2004-10-18 12:00:02",0,0,0,0,0,0,0,18,0
"2004-10-18 12:00:03",0,0,0,0,0,0,0,11,0
"2004-10-18 12:00:04",0,0,0,0,0,0,0,14,0
"2004-10-18 12:00:05",0,0,0,0,0,0,0,15,0
"2004-10-18 12:00:06",0,0,0,0,0,0,0,20,0
"2004-10-18 12:00:07",0,0,0,0,0,0,0,14,0
"2004-10-18 12:00:08",0,0,0,0,0,0,0,9,0
"2004-10-18 12:00:09",0,0,0,0,0,0,0,11,0
"2004-10-18 12:00:10",0,0,0,0,0,0,0,6,0
"2004-10-18 12:00:11",0,0,0,0,0,0,0,8,0
"2004-10-18 12:00:12",0,0,0,0,0,0,0,14,0
"2004-10-18 12:00:13",0,0,0,0,0,0,0,14,0
"2004-10-18 12:00:14",0,0,0,0,0,0,0,15,0
"2004-10-18 12:00:15",0,0,0,0,0,0,0,12,0
"2004-10-18 12:00:16",0,0,0,0,0,0,0,14,0
"2004-10-18 12:00:17",0,0,0,0,0,0,0,18,0
"2004-10-18 12:00:18",0,0,0,0,0,0,0,15,0
"2004-10-18 12:00:19",0,0,0,0,0,0,0,16,0
"2004-10-18 12:00:20",0,0,0,0,0,0,0,10,0
"2004-10-18 12:00:21",0,0,0,0,0,0,0,3,0
"2004-10-18 12:00:22",0,0,0,0,0,0,0,1,0
"2004-10-18 12:00:23",0,0,0,0,0,0,0,11,0
"2004-10-18 12:00:24",0,0,0,0,0,0,0,15,0
"2004-10-18 12:00:26",0,0,0,0,0,0,0,4,0
"2004-10-18 12:00:27",0,0,0,0,0,0,0,9,0
"2004-10-18 12:00:28",0,0,0,0,0,0,0,12,0
"2004-10-18 12:00:29",0,0,0,0,0,0,0,18,0
"2004-10-18 12:00:30",0,0,0,0,0,0,0,16,0
"2004-10-18 12:00:31",0,0,0,0,0,0,0,18,0
"2004-10-18 12:00:32",0,0,0,0,0,0,0,2,0
"2004-10-18 12:00:34",0,0,0,0,0,0,0,1,0
"2004-10-18 12:00:35",0,0,0,0,0,0,0,1,0
"2004-10-18 12:00:54",0,0,0,0,0,0,0,10,0
"2004-10-18 12:00:55",0,0,0,0,0,0,0,13,0
"2004-10-18 12:10:18",0,0,0,0,0,0,0,1,0
"2004-10-18 12:10:31",0,0,0,0,0,0,0,4,0
"2004-10-18 12:10:32",0,0,0,0,0,0,0,3,0
"2004-10-18 12:10:33",0,0,0,0,0,0,0,6,0
"2004-10-18 12:10:34",0,0,0,0,0,0,0,2,0
"2004-10-18 12:10:35",0,0,0,0,0,0,0,7,0
"2004-10-18 12:10:36",0,0,0,0,0,0,0,6,0
"2004-10-18 12:10:37",0,0,0,0,0,0,0,8,0
"2004-10-18 12:10:38",0,0,0,0,0,0,0,3,0
"2004-10-18 12:10:39",0,0,0,0,0,0,0,7,0
"2004-10-18 12:10:40",0,0,0,0,0,0,0,8,0
"2004-10-18 12:10:41",0,0,0,0,0,0,0,4,0
"2004-10-18 12:10:42",0,0,0,0,0,0,0,2,0
"2004-10-18 12:10:43",0,0,0,0,0,0,0,9,0
"2004-10-18 12:10:44",0,0,0,0,0,0,0,4,0
"2004-10-18 12:10:45",0,0,0,0,0,0,0,3,0
"2004-10-18 12:10:46",0,0,0,0,0,0,0,8,0
"2004-10-18 12:10:47",0,0,0,0,0,0,0,11,0
"2004-10-18 12:10:48",0,0,0,0,0,0,0,4,0
"2004-10-18 12:10:49",0,0,0,0,0,0,0,6,0
"2004-10-18 12:10:50",0,0,0,0,0,0,0,6,0
"2004-10-18 12:10:51",0,0,0,0,0,0,0,6,0
"2004-10-18 12:10:52",0,0,0,0,0,0,0,5,0
"2004-10-18 12:10:53",0,0,0,0,0,0,0,5,0
"2004-10-18 12:10:54",0,0,0,0,0,0,0,5,0
"2004-10-18 12:10:55",0,0,0,0,0,0,0,9,0
"2004-10-18 12:10:56",0,0,0,0,0,0,0,4,0
"2004-10-18 12:10:57",0,0,0,0,0,0,0,3,0
"2004-10-18 12:10:58",0,0,0,0,0,0,0,4,0
"2004-10-18 12:10:59",0,0,0,0,0,0,0,4,0
"2004-10-18 12:11:00",0,0,0,0,0,0,0,2,0
"2004-10-18 12:11:01",0,0,0,0,0,0,0,4,0
"2004-10-18 12:11:02",0,0,0,0,0,0,0,1,0
"2004-10-18 12:11:03",0,0,0,0,0,0,0,2,0
"2004-10-18 12:11:04",0,0,0,0,0,0,0,5,0
"2004-10-18 12:11:05",0,0,0,0,0,0,0,4,0
"2004-10-18 12:11:06",0,0,0,0,0,0,0,8,0
"2004-10-18 12:11:07",0,0,0,0,0,0,0,7,0
"2004-10-18 12:11:08",0,0,0,0,0,0,0,5,0
"2004-10-18 12:11:09",0,0,0,0,0,0,0,2,0
"2004-10-18 12:11:10",0,0,0,0,0,0,0,6,0
"2004-10-18 12:11:11",0,0,0,0,0,0,0,4,0
"2004-10-18 12:11:12",0,0,0,0,0,0,0,8,0
"2004-10-18 12:11:13",0,0,0,0,0,0,0,7,0
"2004-10-18 12:11:14",0,0,0,0,0,0,0,4,0
"2004-10-18 12:11:15",0,0,0,0,0,0,0,2,0
"2004-10-18 12:11:16",0,0,0,0,0,0,0,6,0
"2004-10-18 12:11:17",0,0,0,0,0,0,0,6,0
"2004-10-18 12:11:18",0,0,0,0,0,0,0,5,0
"2004-10-18 12:11:19",0,0,0,0,0,0,0,4,0
"2004-10-18 12:11:20",0,0,0,0,0,0,0,3,0
"2004-10-18 12:11:21",0,0,0,0,0,0,0,6,0
"2004-10-18 12:11:22",0,0,0,0,0,0,0,2,0
"2004-10-18 12:11:23",0,0,0,0,0,0,0,3,0
"2004-10-18 12:11:24",0,0,0,0,0,0,0,3,0
"2004-10-18 12:11:25",0,0,0,0,0,0,0,2,0
"2004-10-18 12:11:27",0,0,0,0,0,0,0,4,0
"2004-10-18 12:11:28",0,0,0,0,0,0,0,2,0
"2004-10-18 12:11:30",0,0,0,0,0,0,0,3,0
"2004-10-18 12:11:31",0,0,0,0,0,0,0,7,0
"2004-10-18 12:11:32",0,0,0,0,0,0,0,7,0
"2004-10-18 12:11:33",0,0,0,0,0,0,0,8,0
"2004-10-18 12:11:34",0,0,0,0,0,0,0,7,0
"2004-10-18 12:11:35",0,0,0,0,0,0,0,6,0
"2004-10-18 12:11:36",0,0,0,0,0,0,0,6,0
"2004-10-18 12:11:37",0,0,0,0,0,0,0,7,0
"2004-10-18 12:11:38",0,0,0,0,0,0,0,4,0
"2004-10-18 12:11:39",0,0,0,0,0,0,0,2,0
"2004-10-18 12:11:40",0,0,0,0,0,0,0,7,0
"2004-10-18 12:11:41",0,0,0,0,0,0,0,5,0
"2004-10-18 12:11:42",0,0,0,0,0,0,0,2,0
"2004-10-18 12:11:43",0,0,0,0,0,0,0,2,0
"2004-10-18 12:11:44",0,0,0,0,0,0,0,3,0
"2004-10-18 12:11:45",0,0,0,0,0,0,0,1,0
"2004-10-18 12:11:46",0,0,0,0,0,0,0,3,0
"2004-10-18 12:11:47",0,0,0,0,0,0,0,4,0
"2004-10-18 12:11:48",0,0,0,0,0,0,0,1,0
"2004-10-18 12:11:49",0,0,0,0,0,0,0,1,0
"2004-10-18 12:11:50",0,0,0,0,0,0,0,3,0
"2004-10-18 12:11:51",0,0,0,0,0,0,0,3,0
"2004-10-18 12:11:52",0,0,0,0,0,0,0,6,0
"2004-10-18 12:11:53",0,0,0,0,0,0,0,6,0
"2004-10-18 12:11:54",0,0,0,0,0,0,0,6,0
"2004-10-18 12:11:55",0,0,0,0,0,0,0,5,0
"2004-10-18 12:11:56",0,0,0,0,0,0,0,2,0
"2004-10-18 12:11:57",0,0,0,0,0,0,0,6,0
"2004-10-18 12:11:58",0,0,0,0,0,0,0,5,0
"2004-10-18 12:11:59",0,0,0,0,0,0,0,1,0
"2004-10-18 12:12:00",0,0,0,0,0,0,0,2,0
"2004-10-18 12:12:01",0,0,0,0,0,0,0,3,0
"2004-10-18 12:12:02",0,0,0,0,0,0,0,1,0
"2004-10-18 12:12:03",0,0,0,0,0,0,0,2,0
"2004-10-18 12:12:04",0,0,0,0,0,0,0,5,0
"2004-10-18 12:12:05",0,0,0,0,0,0,0,7,0
"2004-10-18 12:12:06",0,0,0,0,0,0,0,6,0
"2004-10-18 12:12:07",0,0,0,0,0,0,0,5,0
"2004-10-18 12:12:08",0,0,0,0,0,0,0,7,0
"2004-10-18 12:12:09",0,0,0,0,0,0,0,5,0
"2004-10-18 12:12:10",0,0,0,0,0,0,0,7,0
"2004-10-18 12:12:11",0,0,0,0,0,0,0,5,0
"2004-10-18 12:12:12",0,0,0,0,0,0,0,6,0
"2004-10-18 12:12:13",0,0,0,0,0,0,0,8,0
"2004-10-18 12:12:14",0,0,0,0,0,0,0,7,0
"2004-10-18 12:12:15",0,0,0,0,0,0,0,2,0
"2004-10-18 12:12:16",0,0,0,0,0,0,0,1,0
"2004-10-18 12:12:17",0,0,0,0,0,0,0,1,0
"2004-10-18 12:12:18",0,0,0,0,0,0,0,6,0
"2004-10-18 12:12:19",0,0,0,0,0,0,0,4,0
"2004-10-18 12:12:20",0,0,0,0,0,0,0,5,0
"2004-10-18 12:12:21",0,0,0,0,0,0,0,5,0
"2004-10-18 12:12:22",0,0,0,0,0,0,0,3,0
"2004-10-18 12:12:23",0,0,0,0,0,0,0,5,0
"2004-10-18 12:12:24",0,0,0,0,0,0,0,4,0
"2004-10-18 12:12:25",0,0,0,0,0,0,0,2,0
"2004-10-18 12:12:26",0,0,0,0,0,0,0,2,0
"2004-10-18 12:12:27",0,0,0,0,0,0,0,1,0
"2004-10-18 12:12:30",0,0,0,0,0,0,0,8,0
"2004-10-18 12:12:31",0,0,0,0,0,0,0,6,0
"2004-10-18 12:12:32",0,0,0,0,0,0,0,8,0
"2004-10-18 12:12:33",0,0,0,0,0,0,0,4,0
"2004-10-18 12:12:34",0,0,0,0,0,0,0,4,0
"2004-10-18 12:12:35",0,0,0,0,0,0,0,1,0
"2004-10-18 12:12:36",0,0,0,0,0,0,0,3,0
"2004-10-18 12:12:37",0,0,0,0,0,0,0,5,0
"2004-10-18 12:12:38",0,0,0,0,0,0,0,7,0
"2004-10-18 12:12:39",0,0,0,0,0,0,0,7,0
"2004-10-18 12:12:40",0,0,0,0,0,0,0,6,0
"2004-10-18 12:12:41",0,0,0,0,0,0,0,1,0
"2004-10-18 12:12:42",0,0,0,0,0,0,0,3,0
"2004-10-18 12:12:43",0,0,0,0,0,0,0,7,0
"2004-10-18 12:12:44",0,0,0,0,0,0,0,7,0
"2004-10-18 12:12:45",0,0,0,0,0,0,0,4,0
"2004-10-18 12:12:46",0,0,0,0,0,0,0,1,0
"2004-10-18 12:12:47",0,0,0,0,0,0,0,1,0
"2004-10-18 12:12:48",0,0,0,0,0,0,0,2,0
"2004-10-18 12:12:49",0,0,0,0,0,0,0,6,0
"2004-10-18 12:12:50",0,0,0,0,0,0,0,8,0
"2004-10-18 12:12:51",0,0,0,0,0,0,0,4,0
"2004-10-18 12:12:52",0,0,0,0,0,0,0,4,0
"2004-10-18 12:12:53",0,0,0,0,0,0,0,4,0
"2004-10-18 12:12:54",0,0,0,0,0,0,0,2,0
"2004-10-18 12:12:55",0,0,0,0,0,0,0,4,0
"2004-10-18 12:12:56",0,0,0,0,0,0,0,6,0
"2004-10-18 12:12:57",0,0,0,0,0,0,0,4,0
"2004-10-18 12:12:58",0,0,0,0,0,0,0,6,0
"2004-10-18 12:12:59",0,0,0,0,0,0,0,4,0
"2004-10-18 12:13:00",0,0,0,0,0,0,0,6,0
"2004-10-18 12:13:01",0,0,0,0,0,0,0,5,0
"2004-10-18 12:13:03",0,0,0,0,0,0,0,3,0
"2004-10-18 12:13:04",0,0,0,0,0,0,0,6,0
"2004-10-18 12:13:05",0,0,0,0,0,0,0,4,0
"2004-10-18 12:13:06",0,0,0,0,0,0,0,7,0
"2004-10-18 12:13:07",0,0,0,0,0,0,0,6,0
"2004-10-18 12:13:08",0,0,0,0,0,0,0,4,0
"2004-10-18 12:13:09",0,0,0,0,0,0,0,3,0
"2004-10-18 12:13:10",0,0,0,0,0,0,0,6,0
"2004-10-18 12:13:11",0,0,0,0,0,0,0,7,0
"2004-10-18 12:13:12",0,0,0,0,0,0,0,1,0
"2004-10-18 12:13:13",0,0,0,0,0,0,0,2,0
"2004-10-18 12:13:14",0,0,0,0,0,0,0,3,0
"2004-10-18 12:13:15",0,0,0,0,0,0,0,5,0
"2004-10-18 12:13:16",0,0,0,0,0,0,0,6,0
"2004-10-18 12:13:17",0,0,0,0,0,0,0,4,0
"2004-10-18 12:13:18",0,0,0,0,0,0,0,1,0
"2004-10-18 12:13:19",0,0,0,0,0,0,0,5,0
"2004-10-18 12:13:20",0,0,0,0,0,0,0,5,0
"2004-10-18 12:13:21",0,0,0,0,0,0,0,7,0
"2004-10-18 12:13:22",0,0,0,0,0,0,0,5,0
"2004-10-18 12:13:23",0,0,0,0,0,0,0,6,0
"2004-10-18 12:23:17",0,0,0,0,0,0,0,1,0
"2004-10-18 12:23:18",0,0,0,0,0,0,0,6,0
"2004-10-18 12:23:19",0,0,0,0,0,0,0,10,0
"2004-10-18 12:23:20",0,0,0,0,0,0,0,5,0
"2004-10-18 12:23:21",0,0,0,0,0,0,0,9,0
"2004-10-18 12:23:22",0,0,0,0,0,0,0,9,0
"2004-10-18 12:23:23",0,0,0,0,0,0,0,8,0